Time,TemperatureF,DewpointF,PressureIn,WindDirection,WindDirectionDegrees,WindSpeedMPH,WindSpeedGustMPH,Humidity,HourlyPrecipIn,Conditions,Clouds,dailyrainin,SoftwareType,DateUTC
2013-07-28 00:01:00,66.4,65.0,29.77,SE,137,0.0,-999.0,94,-99.99,,,0.00,weatherlink.com 1.10,2013-07-28 04:01:00,
2013-07-28 00:16:00,66.0,65.0,29.76,SE,137,0.0,-999.0,95,-99.99,,,0.00,weatherlink.com 1.10,2013-07-28 04:16:00,
2013-07-28 00:31:00,65.6,64.0,29.76,SE,137,0.0,-999.0,95,-99.99,,,0.00,weatherlink.com 1.10,2013-07-28 04:31:00,
2013-07-28 00:46:00,65.5,64.0,29.76,SE,137,0.0,-999.0,96,-99.99,,,0.00,weatherlink.com 1.10,2013-07-28 04:46:00,
2013-07-28 01:01:00,65.1,64.0,29.76,SE,137,0.0,-999.0,96,-99.99,,,0.00,weatherlink.com 1.10,2013-07-28 05:01:00,
2013-07-28 01:16:00,65.2,64.0,29.77,SSW,198,0.0,-999.0,96,-99.99,,,0.00,weatherlink.com 1.10,2013-07-28 05:16:00,
2013-07-28 01:31:00,65.5,64.0,29.77,ESE,107,0.0,-999.0,96,-99.99,,,0.00,weatherlink.com 1.10,2013-07-28 05:31:00,
2013-07-28 01:46:00,66.0,65.0,29.77,SE,146,0.0,-999.0,95,-99.99,,,0.00,weatherlink.com 1.10,2013-07-28 05:46:00,
2013-07-28 02:01:00,66.3,65.0,29.76,SW,223,0.0,-999.0,94,-99.99,,,0.00,weatherlink.com 1.10,2013-07-28 06:01:00,
2013-07-28 02:16:00,66.6,65.0,29.76,SSW,194,0.0,-999.0,93,-99.99,,,0.00,weatherlink.com 1.10,2013-07-28 06:16:00,
2013-07-28 02:31:00,66.6,65.0,29.75,East,97,0.0,-999.0,93,-99.99,,,0.01,weatherlink.com 1.10,2013-07-28 06:31:00,
2013-07-28 02:46:00,66.6,65.0,29.76,SW,236,0.0,-999.0,93,-99.99,,,0.01,weatherlink.com 1.10,2013-07-28 06:46:00,
2013-07-28 03:01:00,66.4,64.0,29.76,SE,144,1.0,-999.0,92,-99.99,,,0.01,weatherlink.com 1.10,2013-07-28 07:01:00,
2013-07-28 03:16:00,66.4,64.0,29.76,East,97,0.0,-999.0,92,-99.99,,,0.01,weatherlink.com 1.10,2013-07-28 07:16:00,
2013-07-28 03:46:00,66.0,63.0,29.76,WSW,239,0.0,-999.0,89,-99.99,,,0.01,weatherlink.com 1.10,2013-07-28 07:46:00,
2013-07-28 04:01:00,65.9,62.0,29.77,SE,142,0.0,-999.0,88,-99.99,,,0.01,weatherlink.com 1.10,2013-07-28 08:01:00,
2013-07-28 04:16:00,65.8,62.0,29.77,ENE,65,0.0,-999.0,87,-99.99,,,0.01,weatherlink.com 1.10,2013-07-28 08:16:00,
2013-07-28 04:31:00,65.8,62.0,29.78,WSW,237,0.0,-999.0,86,-99.99,,,0.01,weatherlink.com 1.10,2013-07-28 08:31:00,
2013-07-28 04:46:00,66.0,61.0,29.79,SW,217,0.0,-999.0,85,-99.99,,,0.01,weatherlink.com 1.10,2013-07-28 08:46:00,
2013-07-28 05:16:00,66.1,62.0,29.80,South,175,0.0,-999.0,86,-99.99,,,0.01,weatherlink.com 1.10,2013-07-28 09:16:00,
2013-07-28 05:46:00,65.9,62.0,29.80,SW,222,0.0,-999.0,86,-99.99,,,0.01,weatherlink.com 1.10,2013-07-28 09:46:00,
2013-07-28 06:16:00,65.1,61.0,29.81,ESE,119,0.0,-999.0,87,-99.99,,,0.01,weatherlink.com 1.10,2013-07-28 10:16:00,
2013-07-28 06:31:00,64.7,62.0,29.81,SE,132,0.0,-999.0,89,-99.99,,,0.01,weatherlink.com 1.10,2013-07-28 10:31:00,
2013-07-28 06:46:00,64.6,62.0,29.83,South,169,0.0,-999.0,90,-99.99,,,0.01,weatherlink.com 1.10,2013-07-28 10:46:00,
2013-07-28 07:16:00,64.6,62.0,29.83,SE,142,0.0,-999.0,90,-99.99,,,0.01,weatherlink.com 1.10,2013-07-28 11:16:00,
2013-07-28 07:46:00,64.7,62.0,29.84,SE,142,0.0,-999.0,90,-99.99,,,0.01,weatherlink.com 1.10,2013-07-28 11:46:00,
2013-07-28 08:01:00,64.7,62.0,29.84,SE,142,0.0,-999.0,91,-99.99,,,0.01,weatherlink.com 1.10,2013-07-28 12:01:00,
2013-07-28 08:16:00,64.9,62.0,29.84,SE,142,0.0,-999.0,91,-99.99,,,0.01,weatherlink.com 1.10,2013-07-28 12:16:00,
2013-07-28 09:01:00,64.5,61.0,29.85,SW,232,1.0,-999.0,87,-99.99,,,0.01,weatherlink.com 1.10,2013-07-28 13:01:00,
2013-07-28 09:16:00,65.1,59.0,29.86,WNW,290,1.0,-999.0,80,-99.99,,,0.01,weatherlink.com 1.10,2013-07-28 13:16:00,
2013-07-28 09:46:00,66.0,58.0,29.86,ENE,67,2.0,-999.0,74,-99.99,,,0.01,weatherlink.com 1.10,2013-07-28 13:46:00,
2013-07-28 10:16:00,67.0,57.0,29.86,SW,228,0.0,-999.0,71,-99.99,,,0.01,weatherlink.com 1.10,2013-07-28 14:16:00,
2013-07-28 10:46:00,67.6,58.0,29.86,WSW,243,0.0,-999.0,72,-99.99,,,0.01,weatherlink.com 1.10,2013-07-28 14:46:00,
2013-07-28 11:16:00,68.8,56.0,29.87,WSW,242,0.0,-999.0,65,-99.99,,,0.01,weatherlink.com 1.10,2013-07-28 15:16:00,
2013-07-28 11:31:00,67.6,57.0,29.88,WSW,247,0.0,-999.0,68,-99.99,,,0.01,weatherlink.com 1.10,2013-07-28 15:31:00,
2013-07-28 11:46:00,68.3,58.0,29.87,SW,234,0.0,-999.0,69,-99.99,,,0.01,weatherlink.com 1.10,2013-07-28 15:46:00,
2013-07-28 12:01:00,70.2,58.0,29.87,WNW,298,1.0,-999.0,66,-99.99,,,0.01,weatherlink.com 1.10,2013-07-28 16:01:00,
2013-07-28 12:16:00,70.8,57.0,29.87,WSW,249,0.0,-999.0,61,-99.99,,,0.01,weatherlink.com 1.10,2013-07-28 16:16:00,
2013-07-28 12:31:00,72.0,58.0,29.87,SW,219,2.0,-999.0,61,-99.99,,,0.01,weatherlink.com 1.10,2013-07-28 16:31:00,
2013-07-28 13:01:00,72.7,56.0,29.87,WSW,239,1.0,-999.0,57,-99.99,,,0.01,weatherlink.com 1.10,2013-07-28 17:01:00,
2013-07-28 13:16:00,72.2,56.0,29.87,WSW,240,0.0,-999.0,58,-99.99,,,0.01,weatherlink.com 1.10,2013-07-28 17:16:00,
2013-07-28 13:31:00,72.2,56.0,29.87,SSE,161,0.0,-999.0,57,-99.99,,,0.01,weatherlink.com 1.10,2013-07-28 17:31:00,
2013-07-28 13:46:00,72.2,55.0,29.88,SSE,163,1.0,-999.0,55,-99.99,,,0.01,weatherlink.com 1.10,2013-07-28 17:46:00,
2013-07-28 14:01:00,73.3,56.0,29.88,West,280,0.0,-999.0,55,-99.99,,,0.01,weatherlink.com 1.10,2013-07-28 18:01:00,
2013-07-28 14:31:00,72.6,55.0,29.88,ESE,114,3.0,-999.0,54,-99.99,,,0.01,weatherlink.com 1.10,2013-07-28 18:31:00,
2013-07-28 14:46:00,73.2,57.0,29.88,SSW,211,2.0,-999.0,57,-99.99,,,0.01,weatherlink.com 1.10,2013-07-28 18:46:00,
2013-07-28 15:16:00,72.5,56.0,29.88,West,271,1.0,-999.0,56,-99.99,,,0.01,weatherlink.com 1.10,2013-07-28 19:16:00,
2013-07-28 15:31:00,71.9,55.0,29.89,SSW,210,1.0,-999.0,56,-99.99,,,0.01,weatherlink.com 1.10,2013-07-28 19:31:00,
2013-07-28 16:01:00,72.1,55.0,29.88,SW,224,4.0,-999.0,56,-99.99,,,0.01,weatherlink.com 1.10,2013-07-28 20:01:00,
2013-07-28 16:16:00,71.7,55.0,29.88,WSW,249,2.0,-999.0,55,-99.99,,,0.01,weatherlink.com 1.10,2013-07-28 20:16:00,
2013-07-28 16:31:00,71.6,55.0,29.89,WNW,286,1.0,-999.0,56,-99.99,,,0.01,weatherlink.com 1.10,2013-07-28 20:31:00,
2013-07-28 16:46:00,71.0,56.0,29.89,SW,236,1.0,-999.0,59,-99.99,,,0.01,weatherlink.com 1.10,2013-07-28 20:46:00,
2013-07-28 17:31:00,69.4,53.0,29.90,NNW,334,2.0,-999.0,57,-99.99,,,0.01,weatherlink.com 1.10,2013-07-28 21:31:00,
2013-07-28 18:01:00,69.1,54.0,29.90,SW,232,0.0,-999.0,58,-99.99,,,0.01,weatherlink.com 1.10,2013-07-28 22:01:00,
2013-07-28 18:16:00,71.0,54.0,29.89,SW,219,0.0,-999.0,55,-99.99,,,0.01,weatherlink.com 1.10,2013-07-28 22:16:00,
2013-07-28 18:31:00,70.5,54.0,29.90,SSW,200,1.0,-999.0,56,-99.99,,,0.01,weatherlink.com 1.10,2013-07-28 22:31:00,
2013-07-28 19:01:00,69.4,54.0,29.90,WSW,241,0.0,-999.0,59,-99.99,,,0.01,weatherlink.com 1.10,2013-07-28 23:01:00,
2013-07-28 19:46:00,66.8,54.0,29.91,West,266,0.0,-999.0,63,-99.99,,,0.01,weatherlink.com 1.10,2013-07-28 23:46:00,
2013-07-28 20:01:00,66.6,53.0,29.91,NW,325,0.0,-999.0,63,-99.99,,,0.01,weatherlink.com 1.10,2013-07-29 00:01:00,
2013-07-28 20:16:00,66.3,54.0,29.91,NW,304,0.0,-999.0,65,-99.99,,,0.01,weatherlink.com 1.10,2013-07-29 00:16:00,
2013-07-28 20:31:00,66.2,54.0,29.91,West,259,0.0,-999.0,65,-99.99,,,0.01,weatherlink.com 1.10,2013-07-29 00:31:00,
2013-07-28 21:01:00,65.3,55.0,29.91,NNW,344,0.0,-999.0,69,-99.99,,,0.01,weatherlink.com 1.10,2013-07-29 01:01:00,
2013-07-28 21:31:00,65.9,57.0,29.92,SSE,168,0.0,-999.0,72,-99.99,,,0.01,weatherlink.com 1.10,2013-07-29 01:31:00,
2013-07-28 22:46:00,63.1,54.0,29.95,South,183,0.0,-999.0,71,-99.99,,,0.01,weatherlink.com 1.10,2013-07-29 02:46:00,
2013-07-28 23:01:00,63.0,53.0,29.95,SW,225,1.0,-999.0,71,-99.99,,,0.01,weatherlink.com 1.10,2013-07-29 03:01:00,
2013-07-28 23:46:00,62.9,56.0,29.95,WSW,238,0.0,-999.0,77,-99.99,,,0.01,weatherlink.com 1.10,2013-07-29 03:46:00,